Wind_Speed
28 26 25 22 19 18 17 15 14 13 12 10 7 5 6 8 10 11 11 11 10 9 8 8 11 12 12 11 11 16 16 12 7 5 5 17 19 22 25 26 35 38 46
27 25 22 19 17 17 16 16 15 13 11 8 5 4 8 12 12 10 10 9 11 10 9 10 9 11 10 10 12 14 17 11 14 12 13 15 27 33 37 39 37 43 41
24 22 20 18 16 16 17 15 13 12 8 5 4 7 3 4 5 6 5 7 7 8 10 11 11 14 12 11 13 16 15 18 20 20 16 22 29 38 40 37 39 46 39
22 21 20 20 18 17 16 15 11 10 7 2 2 5 2 3 5 0 4 6 6 5 7 10 13 14 13 14 18 21 21 22 23 23 23 26 27 29 39 39 34 35 37
21 22 22 19 16 17 16 12 10 9 5 4 8 5 1 3 4 4 4 3 3 3 5 13 13 10 12 16 23 26 28 24 23 24 22 23 26 23 29 30 35 30 28
20 19 19 17 16 18 14 13 10 8 4 10 8 4 3 4 2 2 2 3 3 6 12 11 11 13 16 17 21 26 24 25 25 23 25 23 21 23 30 31 33 27 10
19 17 20 17 17 15 14 12 11 9 8 11 9 4 3 3 6 2 4 5 7 11 14 17 17 19 19 21 24 24 18 24 22 31 29 27 28 33 34 30 27 23 16
19 21 20 19 15 13 13 13 10 12 11 15 9 4 2 4 5 3 8 9 13 13 16 18 20 21 24 28 30 23 27 22 26 27 30 30 32 31 32 34 28 24 27
24 23 21 19 17 15 13 12 11 12 13 13 8 5 2 3 3 4 8 12 16 16 16 17 18 25 28 31 30 29 30 26 28 32 30 35 36 36 32 32 27 27 16
25 24 22 19 19 17 15 13 11 12 12 12 9 4 3 3 4 5 7 14 18 19 17 19 22 28 28 30 33 30 28 28 28 26 26 30 30 28 29 31 34 27 21
26 24 23 20 19 16 15 13 12 11 11 13 9 6 6 4 5 6 7 11 16 19 19 21 24 25 27 28 33 31 29 26 27 29 27 28 25 26 27 24 29 34 26
26 24 23 20 17 14 12 10 10 12 13 13 11 9 8 5 6 8 7 10 14 19 20 24 24 24 23 27 27 27 25 27 28 29 30 28 28 26 23 19 20 22 18
27 23 20 20 17 15 12 12 11 11 14 15 13 10 9 7 7 9 8 10 14 19 20 23 22 21 20 21 23 26 27 29 27 29 29 27 26 25 19 14 15 18 21
27 22 20 20 18 15 12 11 11 11 14 16 14 11 9 9 10 12 13 13 15 19 23 24 22 21 19 20 25 26 26 29 32 31 29 24 23 22 19 14 14 18 18
27 23 23 22 21 16 13 12 10 9 13 17 16 14 14 12 14 14 14 16 20 22 24 24 23 21 21 22 25 23 24 24 25 29 28 27 24 21 17 16 15 16 21
24 23 26 24 21 18 16 12 9 8 9 10 11 12 12 10 14 14 14 16 20 22 23 20 17 18 20 22 23 24 25 26 24 26 25 25 24 23 20 18 18 17 18
27 25 26 25 23 21 18 14 12 9 8 9 9 10 9 12 14 16 16 17 19 22 22 21 19 20 18 21 20 23 27 29 27 26 25 25 25 23 19 20 21 22 21
27 30 30 29 27 24 22 19 15 13 10 10 14 12 10 11 16 16 18 19 23 22 21 24 23 24 23 21 21 26 29 27 27 28 27 27 27 25 22 22 24 26 28
26 28 28 28 30 29 25 21 19 16 13 12 16 14 14 13 17 17 19 23 26 25 23 22 24 25 24 26 28 29 31 31 30 28 27 26 27 28 29 30 30 31 31
26 28 32 31 28 28 27 24 20 18 16 16 18 19 20 19 22 23 23 25 26 27 27 26 25 25 25 25 26 29 32 32 32 33 32 31 31 31 32 33 33 30 32
22 26 31 29 28 29 29 28 27 24 22 20 22 23 24 28 30 31 32 32 31 31 31 30 28 27 25 27 29 30 32 34 34 35 35 35 34 32 35 35 34 36 34
4 19 26 26 25 27 28 29 28 27 27 27 27 26 26 29 27 31 33 35 35 36 34 34 34 34 32 31 30 32 34 35 36 36 38 38 39 38 37 35 34 35 35
20 8 13 21 19 22 24 29 29 28 27 29 30 30 30 30 34 33 36 38 38 38 38 37 36 37 37 38 38 38 38 40 40 39 39 39 39 38 37 37 37 36 34
20 20 16 10 13 16 21 26 29 30 29 29 31 32 34 35 38 40 41 41 41 42 42 41 41 41 40 39 42 43 43 44 43 42 40 40 40 40 40 38 38 38 38
15 17 16 14 12 11 2 15 23 29 31 30 29 32 36 38 37 39 42 43 43 43 44 45 45 46 45 45 45 46 47 47 47 47 45 44 43 42 40 39 39 38 39
15 16 17 16 17 16 13 12 10 9 20 26 30 32 34 37 40 41 41 42 44 45 46 46 47 47 47 47 48 49 50 50 50 49 48 47 48 46 43 42 41 40 40
Wind_Direction
130 134 135 139 145 152 162 164 163 158 165 174 185 209 235 250 256 260 254 253 243 235 229 235 228 223 226 223 220 212 206 160 135 124 144 140 150 141 140 150 155 155 155
135 135 137 143 151 157 161 159 161 163 169 183 209 267 286 263 257 262 258 249 243 244 228 217 209 205 209 211 206 195 179 174 144 137 108 111 116 123 127 125 120 124 124
142 141 144 150 156 160 162 162 165 168 179 186 270 292 229 256 277 276 271 233 228 236 219 210 199 188 188 183 183 158 145 135 135 130 118 117 116 118 115 114 114 128 127
156 158 159 166 166 166 166 165 169 173 174 233 154 165 217 317 306 287 231 206 206 217 213 199 194 192 186 167 144 140 137 127 124 119 121 122 125 126 120 117 112 124 133
169 174 176 173 169 166 170 163 158 168 168 159 157 149 77 9 57 87 105 130 188 191 172 162 175 187 182 171 152 142 142 133 130 130 131 127 132 134 125 130 128 134 137
177 178 171 170 165 164 167 167 167 169 158 163 164 137 86 51 59 78 105 92 88 143 137 141 148 144 147 156 150 146 148 145 140 140 139 135 128 124 130 132 131 132 123
174 174 171 163 167 170 175 175 182 170 168 167 172 148 102 43 8 154 115 89 102 122 129 133 137 141 149 145 144 136 131 140 135 139 141 143 133 136 135 133 134 132 135
169 173 168 170 172 175 177 179 156 156 173 171 168 145 103 55 35 124 111 100 115 130 139 143 144 149 144 137 135 124 128 130 125 130 133 141 140 142 143 141 139 127 138
168 172 175 178 172 179 180 170 162 166 164 165 165 157 119 71 76 79 113 111 118 123 135 139 148 147 138 134 126 112 116 112 122 138 143 149 150 153 151 147 134 129 134
172 178 183 185 183 184 187 172 163 175 177 171 164 160 134 117 113 126 131 123 117 126 124 136 146 145 143 146 138 125 112 121 134 135 134 148 154 156 161 162 159 145 148
176 183 185 189 189 184 175 171 162 169 167 167 165 150 145 133 138 153 149 133 137 129 133 139 147 151 149 150 146 150 142 143 145 150 149 151 157 159 167 169 171 169 157
181 187 189 192 193 186 174 165 166 175 174 171 167 147 143 154 152 159 165 151 152 144 146 151 152 155 154 157 151 150 150 154 154 153 154 158 164 169 175 180 186 188 174
186 187 187 191 193 185 173 162 157 172 177 173 172 166 154 146 155 158 162 150 152 155 154 155 154 156 159 160 156 150 153 157 156 155 162 166 171 171 171 179 194 201 207
189 186 181 182 185 189 183 181 176 174 177 175 177 176 165 152 149 157 156 154 151 147 149 156 156 156 159 160 157 162 162 163 163 165 170 169 169 173 184 191 201 209 217
190 185 182 181 181 186 192 190 196 201 196 189 192 188 178 175 171 168 165 159 158 153 149 155 160 161 159 163 167 172 173 173 171 173 173 172 177 182 193 206 216 216 222
176 180 183 182 182 188 189 183 201 211 210 214 212 202 195 190 176 175 174 166 163 160 161 157 158 164 165 168 171 180 183 184 181 180 180 183 187 193 204 210 216 223 222
179 183 186 187 185 189 193 188 195 218 221 222 211 206 204 184 179 175 173 173 171 169 170 175 177 177 171 179 182 190 192 197 195 196 195 197 200 205 212 219 225 232 240
194 194 190 193 195 197 198 197 204 207 203 202 210 213 205 196 186 183 181 178 177 187 187 183 187 190 192 190 192 200 203 205 206 210 213 216 218 223 227 231 233 236 241
197 196 195 196 201 205 204 204 206 214 216 199 191 202 203 197 194 194 196 194 193 200 203 204 203 202 202 205 209 208 207 207 208 210 215 219 223 228 236 242 245 246 247
206 207 205 206 206 207 210 210 210 215 216 209 203 203 193 193 192 200 205 205 210 212 212 217 218 221 220 218 215 213 213 215 215 218 223 227 230 233 237 241 242 240 242
221 213 209 203 204 206 209 211 217 218 219 219 221 218 211 201 203 206 210 214 219 224 223 224 225 225 226 227 226 224 223 223 224 227 230 232 235 239 242 246 245 245 243
231 226 218 208 207 205 211 215 218 220 222 224 229 228 227 219 218 217 219 222 225 228 231 232 232 232 230 229 228 228 230 232 233 235 238 242 245 248 249 246 241 242 244
40 61 225 221 220 217 216 218 218 220 223 230 235 234 229 227 225 230 231 234 234 234 235 236 238 240 239 237 235 234 233 235 238 243 247 251 253 253 252 246 245 242 240
32 37 43 54 228 228 228 229 230 231 228 227 231 234 239 237 232 232 237 240 239 241 240 241 242 243 244 243 241 240 241 243 245 247 250 253 255 257 256 252 248 245 242
20 19 19 17 25 25 336 242 245 243 240 236 233 234 240 245 242 238 238 240 241 243 245 246 248 248 247 247 248 248 248 248 248 249 251 253 255 258 259 257 254 251 250
21 14 19 12 7 2 355 350 350 287 259 252 245 240 238 241 246 246 243 240 240 243 246 248 251 249 251 251 250 249 250 250 250 250 251 251 253 254 252 252 253 252 251
Height
679 683 686 691 695 698 701 705 708 711 714 716 718 721 722 722 723 723 723 723 723 723 724 726 726 728 730 731 733 735 737 740 746 751 752 753 756 758 761 766 772 777 782
682 686 690 694 697 700 703 706 709 712 715 717 718 720 721 720 721 720 720 721 721 721 722 723 725 726 727 729 730 732 736 739 741 749 753 757 758 761 765 770 776 778 786
684 688 692 696 699 702 705 707 710 713 715 717 718 719 720 720 719 718 718 718 719 719 720 722 723 724 726 728 730 733 737 739 743 747 754 760 763 766 771 777 775 785 798
686 690 693 696 699 702 705 708 711 713 715 717 718 719 720 720 718 717 717 716 718 718 718 719 721 723 725 728 731 734 738 742 746 750 757 763 767 772 770 780 791 798 805
687 691 694 697 700 703 706 709 711 714 716 717 719 720 720 719 719 718 718 717 718 718 718 719 722 725 727 729 731 734 738 744 748 753 760 765 770 776 776 786 792 803 810
689 692 695 698 701 703 707 709 712 714 716 718 720 720 721 720 719 719 718 718 718 720 720 721 723 726 730 732 734 738 742 744 749 754 761 766 772 778 784 789 795 801 811
690 693 696 699 702 704 707 709 712 714 716 719 720 721 721 721 720 719 720 720 719 722 723 724 727 730 733 735 739 743 747 751 754 756 761 768 773 779 784 792 799 804 811
690 694 696 699 701 704 707 709 712 714 716 719 721 721 722 722 721 720 721 722 723 724 725 728 730 733 736 738 742 746 751 756 759 763 767 772 778 785 791 794 801 807 817
690 694 696 699 701 704 707 710 713 714 717 720 721 722 723 722 723 722 723 725 726 728 730 733 735 737 740 742 746 750 755 760 765 770 773 778 784 789 794 800 807 812 822
690 693 696 699 702 704 707 710 713 714 717 720 722 723 724 724 724 725 726 727 729 732 734 737 739 740 743 747 749 754 760 766 771 778 783 789 792 796 802 804 807 813 819
689 692 696 699 702 704 707 710 712 714 717 720 722 724 725 726 726 728 729 730 732 735 738 740 743 745 748 751 754 759 765 771 777 782 787 793 798 801 806 809 812 812 817
690 693 696 700 703 705 707 710 713 715 717 720 722 724 726 727 728 730 732 734 735 737 740 744 747 751 754 756 760 764 769 774 779 785 791 795 799 804 808 811 815 817 820
690 693 697 701 704 706 708 711 713 715 717 720 722 724 726 728 730 732 734 735 738 740 743 748 752 756 758 762 765 768 772 776 781 786 791 795 799 804 809 812 815 817 819
690 693 698 701 704 708 710 712 713 715 718 720 723 724 727 729 731 733 735 737 740 743 747 752 756 760 763 765 770 773 776 779 782 786 791 796 801 805 808 811 812 815 818
689 693 697 701 705 708 711 713 715 716 718 720 723 725 726 729 732 734 736 738 742 746 749 754 758 762 765 768 772 776 779 782 785 788 792 796 801 805 807 809 812 814 817
688 692 696 700 705 708 710 713 715 717 719 722 724 726 728 730 733 735 738 741 745 748 752 755 759 762 765 768 772 775 779 783 786 789 793 797 800 803 805 808 810 811 813
686 691 695 700 704 707 710 711 714 717 719 721 723 726 729 730 734 736 739 743 746 749 752 756 759 762 766 769 772 775 777 781 785 789 792 795 799 801 804 805 807 808 808
685 688 693 697 701 706 708 710 712 715 717 719 723 725 728 731 734 737 740 744 747 750 752 754 758 761 764 767 770 772 775 779 783 786 789 792 795 798 800 801 803 803 804
684 687 692 695 699 702 706 709 711 713 715 717 721 725 728 731 734 737 740 741 744 747 750 753 755 758 760 762 765 768 772 775 779 782 785 787 789 792 793 795 796 797 798
681 683 687 692 696 700 704 707 709 711 714 716 718 721 724 729 732 735 737 740 742 744 747 749 752 755 758 760 762 764 767 770 773 776 778 780 783 785 786 787 788 790 790
680 682 684 688 691 695 699 702 705 708 711 713 715 717 720 722 725 728 731 734 737 739 742 745 748 751 753 756 759 761 763 765 768 770 773 775 778 779 780 781 782 783 784
677 679 683 685 688 691 694 698 701 704 707 709 712 714 717 720 722 723 725 727 729 732 735 738 741 744 747 749 752 755 757 760 762 764 767 769 770 771 772 773 774 775 775
681 678 680 683 686 689 691 693 696 698 700 703 705 708 710 713 716 717 718 720 722 725 727 730 733 735 738 741 744 746 748 749 752 756 758 760 761 762 763 763 764 765 766
686 684 683 683 684 686 688 690 692 693 694 696 698 700 701 704 706 708 709 711 713 715 718 721 723 725 728 731 733 736 738 741 744 746 750 751 751 753 754 754 755 754 755
690 688 687 686 685 686 685 686 687 688 690 691 692 693 693 694 697 699 701 703 705 707 708 710 712 714 717 720 722 724 727 730 733 736 739 741 742 743 743 743 743 743 744
689 690 687 687 687 686 687 685 684 684 684 685 685 685 686 686 687 688 691 693 695 696 698 699 700 702 704 706 708 710 712 715 717 721 725 728 728 729 731 732 733 733 732